Tracking 28125 objects as of 2-Oct-2023
HD Live streaming from Space Station
objects crossing your sky now

STARLINK-5300

Track STARLINK-5300 now!
10-day predictions
STARLINK-5300 is classified as:


NORAD ID: 55676
Int'l Code: 2023-021BA
Perigee: 362.5 km
Apogee: 368.6 km
Inclination: 70.0 °
Period: 91.7 minutes
Semi major axis: 6736 km
RCS: Unknown
Launch date: February 17, 2023
Source: United States (US)
Launch site: AIR FORCE WESTERN TEST RANGE (AFWTR)
Your satellite tracking list
Your tracking list is empty




NASA's NSSDC Master Catalog

Two Line Element Set (TLE):
1 55676U 23021BA  23275.29900369  .00126850  00000-0  10296-2 0  9996
2 55676  70.0017 233.0199 0004537 271.7961  88.2715 15.70181751 36090
Source of the keplerian elements: AFSPC